Погода в Сутоморе

Черногория     42°08′20″N   19°02′50″E
темп.,
°C
ветер,
м/с
пор.,
м/с
влажн.,
%
обл.,
%
осадки,
мм/ч
давл.,
гПа
погр.,
м
17 мая, пн
пн1723:00+14ю1179100 0.0 101238
02:00+14в1277100 0.0 101245
05:00+13всв338557 0.0 101076
08:00+16вюв247258 0.0 1010319
11:00+17юв3669100 0.0 1010764
14:00+17юв467369 0.0 1009588
17:00+18юв237711 0.0 1009445
20:00+15св228997 0.1 100923
18 мая, вт
вт1823:00+14ссв228928 0.2 101047
02:00+13с228718 0.8 101131
05:00+12ссз228245 0.1 101231
08:00+16зсз12682 0.1 1013274
11:00+19з24590 0.0 1014991
14:00+19зюз44600 0.0 1014933
17:00+17юз33663 0.0 1015460
20:00+13сз11760 0.0 101520
19 мая, ср
ср1923:00+12ссз01723 0.0 101621
02:00+11ссв22735 0.0 101632
05:00+11св3375100 0.0 101545
08:00+15св2268100 0.0 1015170
11:00+19зюз22578 0.0 1015940
14:00+19ююз23583 0.0 1014946
17:00+18ю2366100 0.0 1013651
20:00+14ююз22851 0.0 101375
20 мая, чт
чт2023:00+13ю128742 0.0 101344
02:00+13ююв2393100 1.6 1011101
05:00+13ююз459197 2.6 1010333
08:00+15ююз367521 4.1 10101184
11:00+15юз337959 2.0 1010783
14:00+15юз237512 4.6 1011733
17:00+15с127334 1.4 1011641
20:00+10св348724 2.1 1013128
21 мая, пт
пт2123:00+8св348397 0.0 101383
02:00+8ссв458294 0.0 1013107
05:00+9ссв4976100 0.0 1013329
08:00+13св6126268 0.0 10131263
11:00+16св7104928 0.0 10141704
14:00+18св79485 0.0 10131929
17:00+15св79562 0.0 1014923
20:00+11ссв34693 0.0 1015111